Aérodrome :
LOGIN :

S'inscrire | Disclaimer

   EN    FR    IT 

 










Légende :    VFR   VFR Marginal   IFR   IFR Intensif   IFR Très Intensif
Visi : 
Plafond : 
>= 8 km
>= 3000ft
5 à 8 km
1000 à 3000 ft
1500m à 5 km
500 à 1000 ft
800 à 1500m
200 à 500 ft
< 800m
< 200 ft
Symboles :   Orages  Brouillard  Fortes neiges  Fortes précipitations  Vent > 20 kt
SIGMETs :   Divers  Orages  Givrage  Turbulence  Onde Orograph.  Cendres Volcan.






- Altitude de l'aérodrome : 289 ft


LFYR - Romorantin Pruniers

DERNIER METAR :
  • 190430Z AUTO 00000KT 0400 FG VV/// 03/03 Q1017

METARs EXPIRÉS :
  • 190400Z AUTO 00000KT 0350 FG VV/// 03/03 Q1017
  • 190330Z AUTO 00000KT 0250 FG VV/// 03/03 Q1017
  • 190300Z AUTO 23001KT 0500 0450 FG VV/// 04/03 Q1017
  • 190230Z AUTO 27001KT 3700 BR FEW002 BKN046 05/05 Q1017
  • 190200Z AUTO 00000KT 3900 BR FEW004 OVC044 05/05 Q1018

Prévision TAF périmée.



MET'MAP, la Météo Aéronautique d'un coup d'oeil ! - Copyright ORBIFLY Décembre 2007 - Disclaimer

ORBIFLY MET'MAP TEAM :

Programmation & Développement : Alexandra Zaïnal
Conception & Développement : Baudouin d'Aumeries
Co-Programmation & Développement : Marc-Olivier Méhu
Soutien technique & logistique : Manuel Goepfert

Contact : metmap@orbifly.com




SOURCES & CREDITS :

   NOAA